Location: Newark
(23.3970°S, 47.6010°W)
Time: 06:28:18
(UTC+00:00)

Tiros 1 despin weight - Pass Details

Date: 27 February 2020
Orbit: 593 x 642 km, 48.2° (Epoch: 07 April)

Event Time Altitude Azimuth Distance (km) Brightness Sun altitude
Rises 12:00:45 0° 315° (NW) 2,851 ? 39.4°
Reaches altitude 10° 12:03:01 10° 315° (NW) 1,961 ? 39.9°
Maximum altitude 12:07:32 86° 226° (SW) 627 ? 40.9°
Drops below altitude 10° 12:12:10 10° 137° (SE) 2,011 ? 42.0°
Sets 12:14:31 0° 136° (SE) 2,931 ? 42.5°
